Location: Central Coast NSW, Australia
(33.2407°S, 151.4316°E)
Time: 15:29:58
(UTC+10:00)

Hubble Space Telescope - Visible Passes

Search period start: 25 May 2018 00:00
Search period end: 04 June 2018 00:00
Orbit: 537 x 541 km, 28.5° (Epoch: 24 May)

Date Brightness Start Highest point End Pass type
(mag) Time Alt. Az. Time Alt. Az. Time Alt. Az.
25 May 2.0 17:51:09 10° NW 17:54:54 33° NNE 17:57:58 14° ENE visible
25 May 3.3 19:31:51 10° WNW 19:33:19 20° WNW 19:33:19 20° WNW visible
26 May 1.9 17:40:41 10° WNW 17:44:31 36° N 17:48:14 11° ENE visible
26 May 2.8 19:21:30 10° WNW 19:23:36 26° WNW 19:23:36 26° WNW visible
27 May 1.8 17:30:15 10° WNW 17:34:09 39° N 17:38:03 10° ENE visible
27 May 2.4 19:11:11 10° WNW 19:13:54 32° NW 19:13:54 32° NW visible
28 May 1.8 17:19:51 10° WNW 17:23:47 41° N 17:27:44 10° ENE visible
28 May 2.0 19:00:52 10° WNW 19:04:14 35° NNW 19:04:14 35° NNW visible
29 May 2.0 18:50:35 10° WNW 18:54:21 33° N 18:54:37 33° N visible
30 May 2.3 18:40:19 10° WNW 18:43:58 29° NNW 18:45:06 25° NNE visible
31 May 2.6 18:30:04 10° WNW 18:33:34 26° NNW 18:35:40 17° NNE visible
01 Jun 2.9 18:19:55 10° WNW 18:23:09 22° NNW 18:26:23 10° NNE visible
02 Jun 3.2 18:09:49 10° WNW 18:12:44 18° NNW 18:15:39 10° NNE visible
03 Jun 3.5 17:59:52 10° WNW 18:02:18 15° NNW 18:04:45 10° NNE visible
